Location: *
(33.8649°S, 62.1526°E)
Time: 12:56:55
(UTC+00:00)

OAO 2 Rocket - Pass Details

Date: 17 January 2021
Orbit: 676 x 745 km, 35.0° (Epoch: 02 March)

Event Time Altitude Azimuth Distance (km) Brightness Sun altitude
Rises 17:19:14 0° 258° (WSW) 3,183 7.5 -23.2°
Reaches altitude 10° 17:21:44 10° 262° (W) 2,251 6.6 -23.6°
Enters shadow 17:26:56 56° 339° (NNW) 864 3.5 -24.3°
